Weather Service Report


794 
ASHW40 PHFO 272243
RWRHI 

WEATHER ROUNDUP FOR HAWAII
NATIONAL WEATHER SERVICE HONOLULU HI
1200 PM HST THU APR 27 2017

THIS IS AN AUTOMATED REPORT THAT HAS NOT BEEN QUALITY CONTROLLED.

NOTE..."FAIR" INDICATES FEW OR NO CLOUDS BELOW 12,000 FEET WITH NO
SIGNIFICANT WEATHER AND/OR OBSTRUCTIONS TO VISIBILITY.

* - THESE SITES REPORT LIMITED FIELDS

HIZ001>004-272300-
KAUAI-NIIHAU-
  
CITY           SKY/WX    TMP DP  RH WIND       PRES   REMARKS
LIHUE APT      PTSUNNY   80  71  74 NE12      30.07F                  
PORT ALLEN*      N/A     79 N/A N/A SE9         N/A                   
POIPU*           N/A     73 N/A N/A NE1         N/A                   
PRINCEVILLE*     N/A     73 N/A N/A SW1         N/A                   
KOKOLE POINT*  NOT AVBL                                               
MOLOAA DAIRY*    N/A     81  72  74 NE3G10      N/A                   
WAIMEA HTS*      N/A     82  66  57 S6G12       N/A                   
PUU OPAE*      NOT AVBL                                               
PUU LUA*       NOT AVBL                                               
MAKAHA RIDGE*    N/A     79  61  53 W3          N/A                   
$$

HIZ005>011-272300-
OAHU-
  
CITY           SKY/WX    TMP DP  RH WIND       PRES   REMARKS
HONOLULU       MOSUNNY   82  67  60 S10       30.03F                  
KALAELOA       SUNNY     85  68  56 S12       30.05F                  
KANEOHE MCB    MOSUNNY   82  71  69 NE10      30.02                   
WHEELER FIELD  MOSUNNY   81  66  60 S6        30.04F                  
BELLOWS*         N/A    N/A N/A N/A NE10        N/A                   
KAHUKU*          N/A    N/A N/A N/A NE8G16      N/A                   
WHEELER*         N/A    N/A N/A N/A S7G15       N/A                   
WAIANAE HARBOR   N/A    N/A N/A N/A SW7         N/A                   
DILLINGHAM*      N/A     64  46  52 SE2G8       N/A                   
KAHUKU TRN*      N/A     70  57  64 W8G17       N/A                   
KAWAILOA*        N/A     82  63  51 N3G10       N/A                   
KII*             N/A     81  68  65 E13         N/A                   
MAKUA RANGE*     N/A     66  54  63 E5          N/A                   
OAHU FOREST NW NOT AVBL                                               
SCHOFIELD BRK*   N/A     79  64  61 MISG        N/A                   
SCHOFIELD S*   NOT AVBL                                               
WAIANAE VLY*   NOT AVBL                                               
KUAOKALA*      NOT AVBL                                               
HONOULIUULI*   NOT AVBL                                               
MOKUOLOE IS*   NOT AVBL                                               
PALEHUA*         N/A     72  64  78 SW3         N/A                   
WAIAWA PHB*    NOT AVBL                                               
$$

HIZ012>013-272300-
MOLOKAI-
  
CITY           SKY/WX    TMP DP  RH WIND       PRES   REMARKS
MOLOKAI AIRPT  MOSUNNY   72  70  93 N14G21    30.05F                  
KALAUPAPA      NOT AVBL                                               
MAKAPULAPAI*     N/A     81  70  69 E12G17      N/A                   
MOLOKAI 1*     NOT AVBL                                               
PUU ALII*        N/A     69  60  72 SW2         N/A                   
$$

HIZ016-272300-
KAHOOLAWE-
  
CITY           SKY/WX    TMP DP  RH WIND       PRES   REMARKS
KAHOOLAWE*     NOT AVBL                                               
HAKIOAWA*        N/A     82  67  59 MISG      30.47F                  
HONOKANAIA*      N/A     81  68  63 S3          N/A                   
KANELOA*         N/A     77  68  73 NE8G18    30.13R                  
KEALIALALO*    NOT AVBL                                               
LUA MAKIKA*    NOT AVBL                                               
$$

HIZ014>015-272300-
LANAI-
  
CITY           SKY/WX    TMP DP  RH WIND       PRES   REMARKS
LANAI CITY     FAIR      77  63  61 VRB5      30.10F                  
LANAI 1*       NOT AVBL                                               
$$

HIZ017>028-272300-
MAUI-
  
CITY           SKY/WX    TMP DP  RH WIND       PRES   REMARKS
KAHULUI        PTSUNNY   81  63  54 NE15      30.04S                  
KAPALUA-W MAUI PTSUNNY   77  63  61 NE12      30.06S                  
HANA AIRPORT   NOT AVBL                                               
HANA*            N/A     79 N/A N/A NE12        N/A                   
HALEAKALA SUMM   N/A     48  46  93 E17         N/A                   
MAALAEA BAY*     N/A     81 N/A N/A N9          N/A                   
HALEAKALA*     NOT AVBL                                               
KAUPO GAP*     NOT AVBL                                               
KULA 1*          N/A     55  53  94 NW3G12      N/A                   
$$

HIZ023>026-272300-
BIG ISLAND OF HAWAII COAST AND LOWER SLOPES-
  
CITY           SKY/WX    TMP DP  RH WIND       PRES   REMARKS
KAILUA KONA    PTSUNNY   81  67  62 S9        30.03S                  
HILO           PTSUNNY   82  65  56 SE10      30.04F                  
HONOKAA*         N/A     77 N/A N/A VRB1        N/A                   
KAWAIHAE MWT*    N/A     82 N/A N/A W8          N/A                   
KAWAIHAE*        N/A     79 N/A N/A W6        30.03F                  
SOUTH POINT*     N/A     79 N/A N/A N13G21      N/A                   
UPOLU AIRPORT* NOT AVBL                                               
KAMUELA*       CLOUDY    72  63  73 SW8       30.13F                  
HAKALAU*         N/A     65  52  62 SE6G13      N/A                   
KALOKO-HONOKO*   N/A     82  66  57 SW6G12    30.03F                  
PALI 2*          N/A     73  63  68 NW13G22     N/A                   
KEALAKOMO*       N/A     82  64  54 E13         N/A                   
KAUPULEHU*       N/A     81  63  54 SW12G18     N/A                   
KAPAPALA*        N/A     77  64  63 SE7G15      N/A                   
LOWER KAHUKU*    N/A     66  63  88 SE3G10      N/A                   
PUHE CS*         N/A     82  66  57 W5G12       N/A                   
PUHO CS*         N/A     80  67  65 NW2         N/A                   
PTA KEAMUKU*     N/A     66  59  77 CALM        N/A                   
WAIKOLOA*        N/A     79  64  61 W8G18       N/A                   
$$

HIZ027>028-272300-
BIG ISLAND OF HAWAII INTERIOR AND SUMMMITS-
  
CITY           SKY/WX    TMP DP  RH WIND       PRES   REMARKS
BRADSHAW FIELD MOSUNNY   67  50  53 W5        30.33F                  
MK VISITOR CEN   N/A     52  43  71 S10         N/A                   
MAUNA KEA*       N/A     48   7  18 NE13        N/A                   
MAUNA LOA*       N/A    N/A N/A N/A MISG        N/A                   
MAUNA LOA 1*   NOT AVBL                                               
PTA KIPUKA*      N/A     70  55  60 NW9G17      N/A                   
PTA RANGE 17*    N/A     63  52  67 W12G21      N/A                   
PTA WEST*        N/A     52  43  71 NW13G23     N/A                   
NENE CABIN*      N/A     55  54  94 E6G16       N/A                   
AHUMOA*          N/A     54  53  98 NW5G10      N/A                   
PTA PORTABLE*  NOT AVBL                                               
PUU MALI*        N/A     57  54  88 NW6G13      N/A                   
$$

HIC003-272300-
NORTHWEST ISLANDS-
  
CITY           SKY/WX    TMP DP  RH WIND       PRES   REMARKS
MIDWAY ISLAND    N/A     68  50  52 NE15      30.40R                  
MIDWAY NOS*      N/A     64 N/A N/A MISG      30.38R                  
FRENCH FRIGATE NOT AVBL                                               
$$

PHZ110>124-180-272300-
BUOY REPORTS
  
STATION/POSITION TIME  TEMP    WIND        PRES    WAVE   SWELL
                       AIR SEA DIR/SP/G            HT/PER HT/DIR
                 (UTC) (F)     (DEG/KT/KT) (MB)    (FT/S) (FT/D)
BUOY 51001       2220   70 78  300/  8/ 10 1018.4
BUOY 51101       2150   71 78  350/  6/  8 1019.3S   5/11   5/330
BUOY 51100       NOT AVBL
BUOY 51002       2220   78 79   60/ 12/ 16 1016.0
BUOY 51003       2150   78 80   60/  4/  8 1017.4F   6/ 8   5/110
BUOY 51004       2150      78   80/ 12/ 14 1016.2F   6/ 8   7/ 80
BARBERS PT BUOY  NOT AVBL
WAIMEA BAY BUOY  2202      77                N/A     3/11   2/310
KAILUA BAY BUOY  2204      79                N/A     4/ 8   2/340
LANAI BUOY       2215      81                N/A     3/13   2/190
BARBERS PT 2     NOT AVBL
PAUWELA MAUI     2209      77                N/A     5/12   2/330
HILO             2212      78                N/A     5/11   2/340
KANEOHE BAY BUOY 2225      79                N/A     3/ 8   2/ 10
HANALEI KAUAI    2222      79                N/A     4/11   2/300
KAHULUI HARBOR   2206   75 78   30/  9/ 13 1017.5
HONOLULU HARBOR  2206   82 80  160/  3/  8 1017.4
KILO NALU        NOT AVBL
HILO HARBOR      2206   90 78  130/ 10/ 13 1016.7
MOKUOLOE         2136   80 80  100/  5/  8 1017.8F
NAWILIWILI       2206   78 83   50/  8/ 12 1017.6
WHOTS BUOY       NOT AVBL
BUOY 51028       NOT AVBL
$$

......................KEY........................................
  SKY/WX - SKY CONDITIONS/PRESENT WEATHER
  TMP    - TEMPERATURE IN FAHRENHEIT
  DWPT   - DEWPOINT IN FAHRENHEIT
  RH     - RELATIVE HUMIDITY IN PERCENT
  WIND   - DIRECTION AND SPEED /MPH FOR ISLANDS...KTS FOR BUOYS/
  PRES   - MEAN SEA LEVEL PRESSURE IN INCHES OF HG
  VSB    - VISIBILITY IN MILES
  HX     - HEAT INDEX
  WCI    - WIND CHILL INDEX
  VRB    - VARIABLE WIND DIRECTION
  N/A    - NOT AVAILABLE
  

Return to Home page


Western Regional Climate Center, wrcc@dri.edu